51,2013-07-17 19:27:35,1374089255,55.23692,-10.11362,3,2,2013-07-17 19:26:00,1374089160,19.24,1,15.8,0,4095,55.202,-10.0748,40,48
52,2013-07-17 20:06:14,1374091574,55.18217,-10.16442,2,1,2013-07-17 20:00:00,1374091200,18.1,1,15.8,30,4095,55.202,-10.0748,40,48
53,2013-07-17 21:06:07,1374095167,55.18737,-10.10259,2,2,2013-07-17 21:00:00,1374094800,15.15,3,15.8,30,0,55.1896,-10.074,66,44
54,2013-07-17 22:06:11,1374098771,55.21303,-10.04073,10,5,2013-07-17 22:00:00,1374098400,15.13,3,15.8,30,60,55.1896,-10.074,66,44
55,2013-07-17 23:06:10,1374102370,55.16348,-10.02979,3,3,2013-07-17 23:00:00,1374102000,15.11,4,15.8,30,120,55.1896,-10.074,66,44
56,2013-07-18 00:06:13,1374105973,55.16348,-10.02979,2,6,2013-07-18 00:00:00,1374105600,15.11,3,15.8,30,0,55.1898,-10.029,58,44
57,2013-07-18 01:06:09,1374109569,55.21303,-10.04073,8,1,2013-07-18 01:00:00,1374109200,15.1,3,15.8,30,60,55.1898,-10.029,58,44
58,2013-07-18 02:06:10,1374113170,55.1686,-9.96798,2,2,2013-07-18 02:00:00,1374112800,15.1,5,15.8,30,120,55.1898,-10.029,58,44
59,2013-07-18 03:06:13,1374116773,55.16348,-10.02979,2,4,2013-07-18 03:00:00,1374116400,15.1,4,15.8,30,0,55.1828,-10.0236,34,44
60,2013-07-18 04:06:09,1374120369,55.15833,-10.09158,2,1,2013-07-18 04:00:00,1374120000,15.1,3,15.8,30,60,55.1828,-10.0236,34,44
61,2013-07-18 05:06:09,1374123969,55.19253,-10.04073,2,1,2013-07-18 05:00:00,1374123600,15.09,3,15.8,30,120,55.1828,-10.0236,34,44
62,2013-07-18 06:06:13,1374127573,55.21816,-9.97886,2,1,2013-07-18 06:00:00,1374127200,15.1,3,15.8,30,0,55.1946,-10.0398,34,44
63,2013-07-18 07:06:11,1374131171,55.20787,-10.10259,2,1,2013-07-18 07:00:00,1374130800,15.11,3,15.8,30,60,55.1946,-10.0398,34,44
64,2013-07-18 08:06:12,1374134772,55.20787,-10.10259,4,1,2013-07-18 08:00:00,1374134400,15.14,3,15.6,30,120,55.1946,-10.0398,34,44
65,2013-07-18 09:06:10,1374138370,55.19253,-10.04073,3,1,2013-07-18 09:00:00,1374138000,15.17,3,15.6,30,0,55.211,-10.0342,34,48
66,2013-07-18 10:06:09,1374141969,55.20159,-12.80148,191,2,2013-07-18 10:00:00,1374141600,15.2,3,15.6,30,60,55.211,-10.0342,34,48
67,2013-07-18 11:06:09,1374145569,55.21816,-9.97886,2,2,2013-07-18 11:00:00,1374145200,15.22,3,15.6,30,120,55.211,-10.0342,34,48
68,2013-07-18 12:06:12,1374149172,55.24153,-10.75488,96,4,2013-07-18 12:00:00,1374148800,15.27,3,15.6,30,0,55.2198,-10.001,32,44
69,2013-07-18 13:06:12,1374152772,55.21816,-9.97886,4,2,2013-07-18 13:00:00,1374152400,15.31,3,15.6,30,60,55.2198,-10.001,32,44
70,2013-07-18 14:06:10,1374156370,55.23173,-10.17551,66,2,2013-07-18 14:00:00,1374156000,15.37,3,15.6,30,120,55.2198,-10.001,32,44
71,2013-07-18 15:06:09,1374159969,55.1686,-9.96798,5,2,2013-07-18 15:00:00,1374159600,15.45,3,15.6,30,0,55.215,-9.97919999999999,32,48
72,2013-07-18 16:06:10,1374163570,55.08231,-7.7313,181,2,2013-07-18 16:00:00,1374163200,15.49,3,15.6,30,60,55.215,-9.97919999999999,32,48
73,2013-07-18 17:06:34,1374167194,55.24723,-9.98976,6,2,2013-07-18 17:00:00,1374166800,15.51,3,15.6,30,120,55.215,-9.97919999999999,32,48
74,2013-07-18 18:06:14,1374170774,55.0967,-6.47175,232,3,2013-07-18 18:00:00,1374170400,15.43,3,15.6,34,0,55.2178,-9.9906,32,48
75,2013-07-18 19:06:09,1374174369,55.24723,-9.98976,6,2,2013-07-18 19:00:00,1374174000,15.41,3,15.6,30,60,55.2178,-9.9906,32,48
76,2013-07-18 20:06:09,1374177969,55.24723,-9.98976,13,2,2013-07-18 20:00:00,1374177600,15.41,3,15.6,30,120,55.2178,-9.9906,32,48
77,2013-07-18 21:06:10,1374181570,55.24209,-10.0517,4,2,2013-07-18 21:00:00,1374181200,15.41,3,15.6,30,0,55.2272,-10.0014,32,48
78,2013-07-18 22:06:13,1374185173,55.21303,-10.04073,6,1,2013-07-18 22:00:00,1374184800,15.4,3,15.6,30,60,55.2272,-10.0014,32,48
79,2013-07-18 23:06:10,1374188770,55.25234,-9.92779,3,2,2013-07-18 23:00:00,1374188400,15.42,3,15.6,30,120,55.2272,-10.0014,32,48
80,2013-07-19 00:06:09,1374192369,55.21816,-9.97886,4,1,2013-07-19 00:00:00,1374192000,15.43,2,15.6,30,0,55.2436,-9.97059999999999,32,48
81,2013-07-19 01:06:09,1374195969,55.48648,-5.89963,265,2,2013-07-19 01:00:00,1374195600,15.42,3,15.6,30,60,55.2436,-9.97059999999999,32,48
82,2013-07-19 02:06:10,1374199570,55.24723,-9.98976,2,2,2013-07-19 02:00:00,1374199200,15.42,2,15.6,30,120,55.2436,-9.97059999999999,32,48
83,2013-07-19 03:06:09,1374203169,55.25234,-9.92779,3,1,2013-07-19 03:00:00,1374202800,15.38,3,15.6,30,0,55.2434,-9.94799999999998,10,44
84,2013-07-19 04:06:10,1374206770,55.25234,-9.92779,3,1,2013-07-19 04:00:00,1374206400,15.35,3,15.6,30,60,55.2434,-9.94799999999998,10,44
85,2013-07-19 05:06:18,1374210378,55.24723,-9.98976,4,1,2013-07-19 05:00:00,1374210000,15.33,3,15.6,30,120,55.2434,-9.94799999999998,10,44
86,2013-07-19 06:06:09,1374213969,55.22326,-9.91696,3,1,2013-07-19 06:00:00,1374213600,15.31,4,15.6,30,0,55.241,-9.9546,34,48
87,2013-07-19 07:06:09,1374217569,55.21816,-9.97886,2,1,2013-07-19 07:00:00,1374217200,15.31,4,15.6,30,60,55.241,-9.9546,34,48
88,2013-07-19 08:06:10,1374221170,55.2677,-9.98976,11,2,2013-07-19 08:00:00,1374220800,15.33,4,15.6,30,120,55.241,-9.9546,34,48
89,2013-07-19 09:06:13,1374224773,55.22326,-9.91696,2,8,2013-07-19 09:00:00,1374224400,15.36,3,15.6,30,0,55.2452,-9.971,58,44
90,2013-07-19 10:06:10,1374228370,55.14867,-14.99616,326,0,2013-07-19 10:00:00,1374228000,15.39,3,15.6,30,60,55.2452,-9.971,58,44
91,2013-07-19 11:06:11,1374231971,55.29679,-10.00068,8,6,2013-07-19 11:00:00,1374231600,15.44,3,15.6,30,120,55.2452,-9.971,58,44
92,2013-07-19 12:06:12,1374235572,55.38479,-12.79587,192,3,2013-07-19 12:00:00,1374235200,15.5,3,15.6,30,0,55.2558,-9.95739999999998,32,48
93,2013-07-19 13:06:12,1374239172,55.21816,-9.97886,6,2,2013-07-19 13:00:00,1374238800,15.55,3,15.6,30,60,55.2558,-9.95739999999998,32,48
94,2013-07-19 14:06:08,1374242768,55.24723,-9.98976,3,2,2013-07-19 14:00:00,1374242400,15.67,2,15.6,30,120,55.2558,-9.95739999999998,32,48
95,2013-07-19 15:06:10,1374246370,55.22326,-9.91696,2,2,2013-07-19 15:00:00,1374246000,15.73,3,15.6,30,0,55.2548,-9.9442,32,44
96,2013-07-19 16:06:21,1374249981,55.219,-9.21438,80,2,2013-07-19 16:00:00,1374249600,15.75,3,15.6,30,60,55.2548,-9.9442,32,44
97,2013-07-19 17:06:11,1374253571,55.24723,-9.98976,2,2,2013-07-19 17:00:00,1374253200,15.76,4,15.6,30,120,55.2548,-9.9442,32,44
98,2013-07-19 18:06:11,1374257171,55.23765,-8.96609,98,1,2013-07-19 18:00:00,1374256800,15.76,3,15.6,30,0,55.257,-9.96259999999998,34,48
99,2013-07-19 19:06:09,1374260769,55.29679,-10.00068,3,2,2013-07-19 19:00:00,1374260400,15.74,4,15.6,30,60,55.257,-9.96259999999998,34,48
100,2013-07-19 20:06:10,1374264370,55.25234,-9.92779,13,3,2013-07-19 20:00:00,1374264000,15.76,3,15.6,30,120,55.257,-9.96259999999998,34,48
101,2013-07-19 21:06:20,1374267980,55.27281,-9.92779,2,2,2013-07-19 21:00:00,1374267600,15.76,4,15.6,30,0,55.2726,-9.96779999999998,80,44
102,2013-07-19 22:06:12,1374271572,55.24723,-9.98976,4,4,2013-07-19 22:00:00,1374271200,15.79,4,15.6,30,60,55.2726,-9.96779999999998,80,44
103,2013-07-19 23:06:12,1374275172,55.24723,-9.98976,10,3,2013-07-19 23:00:00,1374274800,15.83,4,15.6,30,120,55.2726,-9.96779999999998,80,44
104,2013-07-20 00:06:10,1374278770,55.25234,-9.92779,4,1,2013-07-20 00:00:00,1374278400,15.84,4,15.6,30,0,55.2804,-9.94379999999998,80,48
105,2013-07-20 01:06:10,1374282370,55.30698,-9.8766,4,1,2013-07-20 01:00:00,1374282000,15.8,5,15.6,30,60,55.2804,-9.94379999999998,80,48
106,2013-07-20 02:06:10,1374285970,55.25234,-9.92779,3,1,2013-07-20 02:00:00,1374285600,15.77,3,15.6,30,120,55.2804,-9.94379999999998,80,48
107,2013-07-20 03:06:13,1374289573,55.3019,-9.93865,8,6,2013-07-20 03:00:00,1374289200,15.75,3,15.6,30,0,55.2808,-9.92059999999998,24,44
108,2013-07-20 04:06:10,1374293170,55.25741,-9.86581,2,1,2013-07-20 04:00:00,1374292800,15.78,3,15.6,30,60,55.2808,-9.92059999999998,24,44
109,2013-07-20 05:06:11,1374296771,55.24723,-9.98976,3,8,2013-07-20 05:00:00,1374296400,15.79,3,15.6,30,120,55.2808,-9.92059999999998,24,44
110,2013-07-20 06:06:12,1374300372,55.2677,-9.98976,2,2,2013-07-20 06:00:00,1374300000,15.8,3,15.6,30,0,55.2752,-9.92399999999998,32,48
111,2013-07-20 07:06:12,1374303972,55.3019,-9.93865,12,1,2013-07-20 07:00:00,1374303600,15.84,3,15.6,30,60,55.2752,-9.92399999999998,32,48
112,2013-07-20 08:06:11,1374307571,55.27788,-9.86581,2,3,2013-07-20 08:00:00,1374307200,15.86,4,15.6,30,120,55.2752,-9.92399999999998,32,48
113,2013-07-20 09:06:11,1374311171,55.29679,-10.00068,2,1,2013-07-20 09:00:00,1374310800,15.92,4,15.6,30,0,55.2848,-9.94799999999998,10,44
114,2013-07-20 10:06:14,1374314774,55.27281,-9.92779,8,1,2013-07-20 10:00:00,1374314400,15.98,3,15.6,30,60,55.2848,-9.94799999999998,10,44
115,2013-07-20 11:06:17,1374318377,55.29679,-10.00068,1,2,2013-07-20 11:00:00,1374318000,16.28,2,15.6,30,120,55.2848,-9.94799999999998,10,44
116,2013-07-20 12:06:13,1374321973,55.3019,-9.93865,12,3,2013-07-20 12:00:00,1374321600,16.43,3,15.6,30,0,55.2932,-9.9324,32,48
117,2013-07-20 13:06:13,1374325573,55.3019,-9.93865,5,1,2013-07-20 13:00:00,1374325200,16.57,3,15.6,30,60,55.2932,-9.9324,32,48
118,2013-07-20 14:06:10,1374329170,55.48877,-14.38925,10,8,2013-07-20 14:00:00,1374328800,16.75,3,15.6,30,120,55.2932,-9.9324,32,48
119,2013-07-20 15:06:12,1374332772,55.30698,-9.8766,3,2,2013-07-20 15:00:00,1374332400,16.87,2,15.6,30,0,55.2924,-9.9042,32,48
120,2013-07-20 16:06:12,1374336372,55.3764,-11.37182,114,4,2013-07-20 16:00:00,1374336000,17.08,4,15.6,30,60,55.2924,-9.9042,32,48
121,2013-07-20 17:06:18,1374339978,55.3019,-9.93865,2,2,2013-07-20 17:00:00,1374339600,17.07,3,15.6,30,120,55.2924,-9.9042,32,48
122,2013-07-20 18:06:10,1374343570,55.22371,-9.15234,146,1,2013-07-20 18:00:00,1374343200,17.08,3,15.6,30,0,55.287,-9.9076,32,48
123,2013-07-20 19:06:17,1374347177,55.27788,-9.86581,2,1,2013-07-20 19:00:00,1374346800,17.11,3,15.6,30,60,55.287,-9.9076,32,48
124,2013-07-20 20:06:12,1374350772,55.24425,-8.45923,115,6,2013-07-20 20:00:00,1374350400,17.08,3,15.6,30,120,55.287,-9.9076,32,48
125,2013-07-20 21:06:12,1374354372,55.29679,-10.00068,2,2,2013-07-20 21:00:00,1374354000,17.06,3,15.6,30,0,55.2972,-9.94239999999999,12,44
126,2013-07-20 22:06:10,1374357970,55.29679,-10.00068,3,7,2013-07-20 22:00:00,1374357600,16.97,2,15.6,30,60,55.2972,-9.94239999999999,12,44
127,2013-07-20 23:06:10,1374361570,55.27788,-9.86581,2,4,2013-07-20 23:00:00,1374361200,16.87,3,15.6,30,120,55.2972,-9.94239999999999,12,44
128,2013-07-21 00:06:11,1374365171,55.27281,-9.92779,2,1,2013-07-21 00:00:00,1374364800,16.82,3,15.6,30,0,55.3156,-9.91199999999998,32,44
129,2013-07-21 01:06:11,1374368771,55.35654,-9.88742,23,1,2013-07-21 01:00:00,1374368400,16.7,3,15.6,30,60,55.3156,-9.91199999999998,32,44
130,2013-07-21 02:06:11,1374372371,55.31204,-9.81452,2,6,2013-07-21 02:00:00,1374372000,16.69,3,15.6,30,120,55.3156,-9.91199999999998,32,44
131,2013-07-21 03:06:12,1374375972,55.44108,-7.28968,175,3,2013-07-21 03:00:00,1374375600,16.59,3,15.6,30,0,55.3202,-9.86799999999999,8,44
132,2013-07-21 04:06:14,1374379574,55.30698,-9.8766,2,5,2013-07-21 04:00:00,1374379200,16.37,3,15.6,30,60,55.3202,-9.86799999999999,8,44
133,2013-07-21 05:06:15,1374383175,55.31204,-9.81452,3,2,2013-07-21 05:00:00,1374382800,16.35,2,15.6,30,120,55.3202,-9.86799999999999,8,44
134,2013-07-21 06:06:13,1374386773,55.31204,-9.81452,2,2,2013-07-21 06:00:00,1374386400,16.26,3,15.6,30,0,55.3078,-9.85120000000001,110,48
135,2013-07-21 07:06:10,1374390370,55.3019,-9.93865,3,3,2013-07-21 07:00:00,1374390000,16.28,3,15.6,30,60,55.3078,-9.85120000000001,110,48
136,2013-07-21 08:06:16,1374393976,55.3019,-9.93865,3,0,2013-07-21 08:00:00,1374393600,16.4,3,15.6,30,120,55.3078,-9.85120000000001,110,48
137,2013-07-21 09:06:11,1374397571,55.27281,-9.92779,4,1,2013-07-21 09:00:00,1374397200,16.51,3,15.6,30,0,55.3052,-9.89159999999998,10,44
138,2013-07-21 10:06:14,1374401174,55.32743,-9.8766,6,3,2013-07-21 10:00:00,1374400800,16.63,4,15.6,30,60,55.3052,-9.89159999999998,10,44
139,2013-07-21 11:06:17,1374404777,55.30698,-9.8766,2,5,2013-07-21 11:00:00,1374404400,16.78,3,15.6,30,120,55.3052,-9.89159999999998,10,44
140,2013-07-21 12:06:38,1374408398,55.35145,-9.94954,4,2,2013-07-21 12:00:00,1374408000,16.89,3,15.6,30,0,55.3256,-9.91459999999998,50,48
141,2013-07-21 13:06:13,1374411973,55.3019,-9.93865,4,2,2013-07-21 13:00:00,1374411600,16.82,3,15.6,36,60,55.3256,-9.91459999999998,50,48
142,2013-07-21 14:06:13,1374415573,55.3616,-9.82528,3,2,2013-07-21 14:00:00,1374415200,16.94,4,15.6,30,120,55.3256,-9.91459999999998,50,48
143,2013-07-21 15:06:14,1374419174,55.35145,-9.94954,2,5,2013-07-21 15:00:00,1374418800,17.01,4,15.6,30,0,55.348,-9.8724,80,44
144,2013-07-21 16:06:10,1374422770,55.44207,-11.84307,162,6,2013-07-21 16:00:00,1374422400,16.95,3,15.6,30,60,55.348,-9.8724,80,44
145,2013-07-21 17:06:11,1374426371,55.3616,-9.82528,9,1,2013-07-21 17:00:00,1374426000,16.89,3,15.6,30,120,55.348,-9.8724,80,44
146,2013-07-21 18:06:14,1374429974,55.38052,-10.66619,83,2,2013-07-21 18:00:00,1374429600,16.85,4,15.6,30,0,55.3394,-9.8372,32,48
147,2013-07-21 19:06:13,1374433573,55.3616,-9.82528,5,5,2013-07-21 19:00:00,1374433200,16.86,3,15.6,30,60,55.3394,-9.8372,32,48
148,2013-07-21 20:06:11,1374437171,55.36951,-10.7902,108,3,2013-07-21 20:00:00,1374436800,16.88,3,15.6,30,120,55.3394,-9.8372,32,48
149,2013-07-21 21:06:12,1374440772,55.35654,-9.88742,4,5,2013-07-21 21:00:00,1374440400,16.88,3,15.6,30,0,55.3326,-9.8732,56,48
150,2013-07-21 22:06:10,1374444370,55.3019,-9.93865,2,2,2013-07-21 22:00:00,1374444000,16.89,3,15.6,30,60,55.3326,-9.8732,56,48
151,2013-07-21 23:06:10,1374447970,55.35654,-9.88742,3,8,2013-07-21 23:00:00,1374447600,16.93,3,15.6,30,120,55.3326,-9.8732,56,48
152,2013-07-22 00:06:11,1374451571,55.35654,-9.88742,2,1,2013-07-22 00:00:00,1374451200,16.78,3,15.6,30,0,55.3596,-9.90979999999999,62,48
153,2013-07-22 01:06:13,1374455173,55.36508,-10.14685,73,2,2013-07-22 01:00:00,1374454800,16.66,3,15.6,30,60,55.3596,-9.90979999999999,62,48
154,2013-07-22 02:06:11,1374458771,55.35654,-9.88742,2,1,2013-07-22 02:00:00,1374458400,16.65,3,15.6,30,120,55.3596,-9.90979999999999,62,48
155,2013-07-22 03:06:09,1374462369,55.42034,-8.94307,124,1,2013-07-22 03:00:00,1374462000,16.65,4,15.6,30,0,55.3852,-9.8664,8,44
156,2013-07-22 04:06:11,1374465971,55.41114,-9.83605,3,3,2013-07-22 04:00:00,1374465600,16.66,3,15.6,30,60,55.3852,-9.8664,8,44
157,2013-07-22 05:06:10,1374469570,55.40607,-9.89826,7,7,2013-07-22 05:00:00,1374469200,16.51,3,15.6,30,120,55.3852,-9.8664,8,44
158,2013-07-22 06:06:11,1374473171,55.41114,-9.83605,4,1,2013-07-22 06:00:00,1374472800,16.53,3,15.6,30,0,55.3768,-9.82039999999998,34,48
159,2013-07-22 07:06:09,1374476769,55.35654,-9.88742,5,0,2013-07-22 07:00:00,1374476400,16.55,2,15.6,30,60,55.3768,-9.82039999999998,34,48
160,2013-07-22 08:06:10,1374480370,55.41114,-9.83605,7,1,2013-07-22 08:00:00,1374480000,16.59,3,15.6,30,120,55.3768,-9.82039999999998,34,48
161,2013-07-22 09:06:13,1374483973,55.71536,-4.78481,335,1,2013-07-22 09:00:00,1374483600,16.62,3,15.6,30,0,55.3616,-9.83019999999999,18,44
162,2013-07-22 10:06:09,1374487569,55.3616,-9.82528,1,0,2013-07-22 10:00:00,1374487200,16.8,3,15.6,30,60,55.3616,-9.83019999999999,18,44
163,2013-07-22 11:06:11,1374491171,55.32743,-9.8766,7,4,2013-07-22 11:00:00,1374490800,16.91,3,15.6,30,120,55.3616,-9.83019999999999,18,44
164,2013-07-22 12:06:11,1374494771,55.3616,-9.82528,2,6,2013-07-22 12:00:00,1374494400,17.01,3,15.6,30,0,55.3668,-9.88119999999998,34,48
165,2013-07-22 13:06:11,1374498371,55.38057,-9.96044,1,3,2013-07-22 13:00:00,1374498000,17.07,3,15.6,30,60,55.3668,-9.88119999999998,34,48
166,2013-07-22 14:06:13,1374501973,55.38567,-9.89826,3,4,2013-07-22 14:00:00,1374501600,17.07,4,15.6,30,120,55.3668,-9.88119999999998,34,48
167,2013-07-22 15:06:13,1374505573,55.3616,-9.82528,2,5,2013-07-22 15:00:00,1374505200,17.14,3,15.6,30,0,55.395,-9.874,34,44
168,2013-07-22 16:06:10,1374509170,55.41618,-9.77382,4,3,2013-07-22 16:00:00,1374508800,17.17,3,15.6,30,60,55.395,-9.874,34,44
169,2013-07-22 17:06:11,1374512771,55.41114,-9.83605,2,2,2013-07-22 17:00:00,1374512400,17.19,3,15.6,30,120,55.395,-9.874,34,44
170,2013-07-22 18:06:14,1374516374,55.41114,-9.83605,10,2,2013-07-22 18:00:00,1374516000,17.15,4,15.6,30,0,55.4046,-9.81299999999999,58,44
171,2013-07-22 19:06:09,1374519969,55.41114,-9.83605,3,2,2013-07-22 19:00:00,1374519600,16.99,3,15.6,30,60,55.4046,-9.81299999999999,58,44
172,2013-07-22 20:06:09,1374523569,55.39881,-10.34436,137,3,2013-07-22 20:00:00,1374523200,16.87,3,15.6,30,120,55.4046,-9.81299999999999,58,44
173,2013-07-22 21:06:13,1374527173,55.41618,-9.77382,2,4,2013-07-22 21:00:00,1374526800,16.69,3,15.6,30,0,55.3972,-9.809,34,44
174,2013-07-22 22:06:09,1374530769,55.3616,-9.82528,8,3,2013-07-22 22:00:00,1374530400,17.02,3,15.6,30,60,55.3972,-9.809,34,44
175,2013-07-22 23:06:10,1374534370,55.35654,-9.88742,6,1,2013-07-22 23:00:00,1374534000,17.09,3,15.6,30,120,55.3972,-9.809,34,44
176,2013-07-23 00:06:13,1374537973,55.3616,-9.82528,4,3,2013-07-23 00:00:00,1374537600,16.99,3,15.6,30,0,55.3986,-9.84459999999999,56,48
177,2013-07-23 01:06:14,1374541574,55.31439,-11.80428,143,1,2013-07-23 01:00:00,1374541200,16.87,3,15.6,30,60,55.3986,-9.84459999999999,56,48
178,2013-07-23 02:06:12,1374545172,55.3616,-9.82528,3,2,2013-07-23 02:00:00,1374544800,16.72,3,15.6,30,120,55.3986,-9.84459999999999,56,48
179,2013-07-23 03:06:09,1374548769,55.46994,-8.9529,100,1,2013-07-23 03:00:00,1374548400,16.69,2,15.6,30,0,55.4192,-9.8426,10,48
180,2013-07-23 04:06:12,1374552372,55.44029,-9.84685,4,5,2013-07-23 04:00:00,1374552000,16.72,3,15.6,30,60,55.4192,-9.8426,10,48
181,2013-07-23 05:06:37,1374555997,55.46331,-8.6308,102,1,2013-07-23 05:00:00,1374555600,16.68,3,15.6,30,120,55.4192,-9.8426,10,48
182,2013-07-23 06:06:09,1374559569,55.41114,-9.83605,2,1,2013-07-23 06:00:00,1374559200,16.7,2,15.6,37,0,55.4256,-9.8032,32,48
183,2013-07-23 07:06:12,1374563172,55.41114,-9.83605,3,2,2013-07-23 07:00:00,1374562800,16.66,2,15.6,30,60,55.4256,-9.8032,32,48
184,2013-07-23 08:06:09,1374566769,55.41618,-9.77382,1,4,2013-07-23 08:00:00,1374566400,16.71,2,15.6,30,120,55.4256,-9.8032,32,48
185,2013-07-23 09:06:13,1374570373,55.68038,-5.60927,276,10,2013-07-23 09:00:00,1374570000,16.74,2,15.6,30,0,55.4212,-9.8014,32,48
186,2013-07-23 10:06:11,1374573971,55.41114,-9.83605,5,1,2013-07-23 10:00:00,1374573600,16.71,2,15.6,30,60,55.4212,-9.8014,32,48
187,2013-07-23 11:06:09,1374577569,55.40607,-9.89826,2,20,2013-07-23 11:00:00,1374577200,16.76,3,15.6,30,120,55.4212,-9.8014,32,48
188,2013-07-23 12:06:13,1374581173,55.40607,-9.89826,2,3,2013-07-23 12:00:00,1374580800,16.74,3,15.6,30,0,55.4096,-9.83499999999998,62,48
189,2013-07-23 13:06:12,1374584772,55.44029,-9.84685,8,2,2013-07-23 13:00:00,1374584400,16.97,3,15.6,30,60,55.4096,-9.83499999999998,62,48
190,2013-07-23 14:06:09,1374588369,55.41114,-9.83605,3,2,2013-07-23 14:00:00,1374588000,17.04,3,15.6,30,120,55.4096,-9.83499999999998,62,48
191,2013-07-23 15:06:09,1374591969,55.40607,-9.89826,3,4,2013-07-23 15:00:00,1374591600,16.85,3,15.6,30,0,55.422,-9.85659999999999,32,48
192,2013-07-23 16:06:09,1374595569,55.40607,-9.89826,3,4,2013-07-23 16:00:00,1374595200,16.88,3,15.6,30,60,55.422,-9.85659999999999,32,48
193,2013-07-23 17:06:22,1374599182,55.44029,-9.84685,2,3,2013-07-23 17:00:00,1374598800,17.04,3,15.6,30,120,55.422,-9.85659999999999,32,48
194,2013-07-23 18:06:13,1374602773,55.65701,-13.28057,236,5,2013-07-23 18:00:00,1374602400,16.92,2,15.6,30,0,55.437,-9.82059999999998,32,48
195,2013-07-23 19:06:09,1374606369,55.41114,-9.83605,6,3,2013-07-23 19:00:00,1374606000,16.67,2,15.6,30,60,55.437,-9.82059999999998,32,48
196,2013-07-23 20:06:09,1374609969,55.5875,-12.60453,190,3,2013-07-23 20:00:00,1374609600,16.79,3,15.6,30,120,55.437,-9.82059999999998,32,48
197,2013-07-23 21:06:11,1374613571,55.44029,-9.84685,1,2,2013-07-23 21:00:00,1374613200,16.64,2,15.6,30,0,55.4352,-9.79899999999998,32,48
198,2013-07-23 22:06:11,1374617171,55.56152,-12.26747,175,2,2013-07-23 22:00:00,1374616800,16.53,3,15.6,30,60,55.4352,-9.79899999999998,32,48
199,2013-07-23 23:06:11,1374620771,55.41618,-9.77382,2,8,2013-07-23 23:00:00,1374620400,16.59,3,15.6,30,120,55.4352,-9.79899999999998,32,48
200,2013-07-24 00:06:12,1374624372,55.41114,-9.83605,2,2,2013-07-24 00:00:00,1374624000,16.58,4,15.6,30,0,55.4248,-9.81459999999998,86,44
201,2013-07-24 01:06:09,1374627969,55.41114,-9.83605,3,4,2013-07-24 01:00:00,1374627600,16.57,3,15.6,30,60,55.4248,-9.81459999999998,86,44
202,2013-07-24 02:06:09,1374631569,55.41618,-9.77382,2,2,2013-07-24 02:00:00,1374631200,16.53,3,15.6,30,120,55.4248,-9.81459999999998,86,44
203,2013-07-24 03:06:12,1374635172,55.36467,-11.49552,127,1,2013-07-24 03:00:00,1374634800,16.57,4,15.6,30,0,55.4288,-9.83619999999999,50,44
204,2013-07-24 04:06:09,1374638769,55.40607,-9.89826,2,1,2013-07-24 04:00:00,1374638400,16.6,3,15.6,30,60,55.4288,-9.83619999999999,50,44
205,2013-07-24 05:06:11,1374642371,55.44029,-9.84685,3,1,2013-07-24 05:00:00,1374642000,16.38,3,15.6,30,120,55.4288,-9.83619999999999,50,44
206,2013-07-24 06:06:11,1374645971,55.44534,-9.78456,2,1,2013-07-24 06:00:00,1374645600,16.48,3,15.6,30,0,55.4458,-9.80699999999999,32,48
207,2013-07-24 07:06:15,1374649575,55.51443,-8.32718,117,2,2013-07-24 07:00:00,1374649200,16.47,4,15.6,30,60,55.4458,-9.80699999999999,32,48
208,2013-07-24 08:06:10,1374653170,55.46067,-9.84685,3,0,2013-07-24 08:00:00,1374652800,16.54,3,15.6,30,120,55.4458,-9.80699999999999,32,48
209,2013-07-24 09:06:14,1374656774,55.41114,-9.83605,12,1,2013-07-24 09:00:00,1374656400,16.51,3,15.6,30,0,55.4434,-9.77199999999999,80,48
210,2013-07-24 10:06:13,1374660373,55.46571,-9.78456,5,1,2013-07-24 10:00:00,1374660000,16.43,3,15.6,30,60,55.4434,-9.77199999999999,80,48
211,2013-07-24 11:06:11,1374663971,55.41114,-9.83605,4,9,2013-07-24 11:00:00,1374663600,16.36,3,15.6,30,120,55.4434,-9.77199999999999,80,48
212,2013-07-24 12:06:10,1374667570,55.46067,-9.84685,4,3,2013-07-24 12:00:00,1374667200,16.31,5,15.6,30,0,55.426,-9.79299999999998,112,44
213,2013-07-24 13:06:11,1374671171,55.41114,-9.83605,6,5,2013-07-24 13:00:00,1374670800,16.39,4,15.6,30,60,55.426,-9.79299999999998,112,44
214,2013-07-24 14:06:09,1374674769,55.41618,-9.77382,2,3,2013-07-24 14:00:00,1374674400,16.52,4,15.6,30,120,55.426,-9.79299999999998,112,44
215,2013-07-24 15:06:12,1374678372,55.44029,-9.84685,2,4,2013-07-24 15:00:00,1374678000,16.55,4,15.6,30,0,55.4284,-9.82819999999998,34,40
216,2013-07-24 16:06:12,1374681972,55.41114,-9.83605,13,6,2013-07-24 16:00:00,1374681600,16.5,4,15.6,30,60,55.4284,-9.82819999999998,34,40
217,2013-07-24 17:06:10,1374685570,55.41618,-9.77382,9,4,2013-07-24 17:00:00,1374685200,16.47,3,15.6,30,120,55.4284,-9.82819999999998,34,40
218,2013-07-24 18:06:13,1374689173,55.77064,-14.84099,327,3,2013-07-24 18:00:00,1374688800,16.44,3,15.6,30,0,55.4526,-9.81,80,48
219,2013-07-24 19:06:10,1374692770,55.44029,-9.84685,2,8,2013-07-24 19:00:00,1374692400,16.4,3,15.6,30,60,55.4526,-9.81,80,48
220,2013-07-24 20:06:18,1374696378,55.49488,-9.79531,9,2,2013-07-24 20:00:00,1374696000,16.37,4,15.6,30,120,55.4526,-9.81,80,48
221,2013-07-24 21:06:11,1374699971,55.49488,-9.79531,5,6,2013-07-24 21:00:00,1374699600,16.31,3,15.6,30,0,55.459,-9.76759999999999,62,44
222,2013-07-24 22:06:19,1374703579,55.44534,-9.78456,2,2,2013-07-24 22:00:00,1374703200,16.28,4,15.6,30,60,55.459,-9.76759999999999,62,44
223,2013-07-24 23:06:10,1374707170,55.47073,-9.72224,3,1,2013-07-24 23:00:00,1374706800,16.3,3,15.6,30,120,55.459,-9.76759999999999,62,44
224,2013-07-25 00:06:11,1374710771,55.45035,-9.72224,2,5,2013-07-25 00:00:00,1374710400,16.28,4,15.6,30,0,55.4382,-9.78440000000001,62,44
225,2013-07-25 01:06:10,1374714370,55.34978,-14.35787,297,2,2013-07-25 01:00:00,1374714000,16.25,4,15.6,30,60,55.4382,-9.78440000000001,62,44
226,2013-07-25 02:06:10,1374717970,55.41114,-9.83605,2,1,2013-07-25 02:00:00,1374717600,16.21,4,15.6,30,120,55.4382,-9.78440000000001,62,44
227,2013-07-25 03:06:13,1374721573,55.27526,-13.15038,225,4,2013-07-25 03:00:00,1374721200,16.24,3,15.6,30,0,55.4386,-9.82039999999998,32,44
228,2013-07-25 04:06:15,1374725175,55.46571,-9.78456,3,1,2013-07-25 04:00:00,1374724800,16.27,3,15.6,30,60,55.4386,-9.82039999999998,32,44